Location: Caracas
(10.5033°N, 66.8422°W)
Time: 17:40:38
(UTC-04:00)

Vanguard 3 - Visible Passes

Search period start: 14 August 2018 00:00
Search period end: 24 August 2018 00:00
Orbit: 507 x 3264 km, 33.4° (Epoch: 10 August)

Date Brightness Start Highest point End Pass type
(mag) Time Alt. Az. Time Alt. Az. Time Alt. Az.
14 Aug 9.7 05:39:35 10° SSE 05:42:34 14° SE 05:46:16 10° ESE visible
14 Aug 10.2 19:08:01 10° WNW 19:24:25 44° SW 19:34:56 10° SSE visible
15 Aug 10.4 20:12:25 10° W 20:22:42 20° SW 20:30:16 10° S visible
16 Aug 9.3 05:23:18 10° S 05:26:35 17° SE 05:30:52 10° E visible
16 Aug 10.4 18:51:16 10° WNW 19:07:41 39° SW 19:18:48 10° SSE visible
17 Aug 10.7 19:56:35 10° W 20:06:16 18° SW 20:13:45 10° S visible
18 Aug 9.0 05:07:14 10° S 05:10:40 20° SE 05:15:17 10° E visible
19 Aug 10.9 19:41:05 10° WSW 19:49:52 16° SW 19:57:01 10° S visible
20 Aug 8.5 04:52:29 16° S 04:54:49 25° SE 04:59:37 10° E visible
21 Aug 7.2 05:47:58 10° SW 05:52:24 90° NNW 05:59:43 10° ENE visible
21 Aug 11.0 19:26:01 10° WSW 19:33:32 14° SW 19:39:58 10° SSW visible
22 Aug 7.8 04:38:18 30° SSE 04:39:04 32° SE 04:43:53 10° ENE visible
23 Aug 7.0 05:33:28 16° WSW 05:36:50 66° NNW 05:43:19 10° NE visible
23 Aug 11.1 19:11:36 10° WSW 19:17:18 12° SW 19:22:25 10° SSW visible
